Hourly Weather Florianópolis

Today, 2 July, Thursday

Time Temperature Precipitation Wind Pressure Humidity
00:00 +14°C° 0 mm 2 mps 761 mmHg 73%
01:00 +14°C° 0 mm 2 mps 761 mmHg 72%
02:00 +14°C° 0 mm 2 mps 762 mmHg 72%
03:00 +14°C° 0 mm 2 mps 762 mmHg 71%
04:00 +13°C° 0 mm 2 mps 761 mmHg 72%
05:00 +12°C° 0 mm 2 mps 761 mmHg 73%
06:00 +12°C° 0 mm 2 mps 761 mmHg 73%
07:00 +13°C° 0 mm 1 mps 762 mmHg 70%
08:00 +14°C° 0 mm 1 mps 763 mmHg 66%
09:00 +15°C° 0 mm 1 mps 763 mmHg 62%
10:00 +16°C° 0 mm 1 mps 763 mmHg 57%
11:00 +18°C° 0 mm 1 mps 763 mmHg 53%
12:00 +19°C° 0 mm 1 mps 762 mmHg 48%
13:00 +18°C° 0 mm 2 mps 762 mmHg 52%
14:00 +17°C° 0 mm 2 mps 762 mmHg 55%
15:00 +17°C° 0 mm 3 mps 762 mmHg 58%
16:00 +16°C° 0 mm 3 mps 763 mmHg 67%
17:00 +14°C° 0 mm 3 mps 763 mmHg 75%
18:00 +12°C° 0 mm 3 mps 763 mmHg 83%
19:00 +12°C° 0.1 mm 3 mps 764 mmHg 84%
20:00 +12°C° 0.1 mm 3 mps 764 mmHg 84%
21:00 +12°C° 0.1 mm 3 mps 765 mmHg 85%
22:00 +12°C° 0 mm 3 mps 765 mmHg 85%
23:00 +11°C° 0 mm 3 mps 765 mmHg 84%

Tomorrow, 3 July, Friday

Time Temperature Precipitation Wind Pressure Humidity
00:00 +12°C° 0 mm 2 mps 765 mmHg 84%
01:00 +12°C° 0 mm 2 mps 765 mmHg 84%
02:00 +10°C° 0 mm 2 mps 765 mmHg 84%
03:00 +10°C° 0 mm 2 mps 765 mmHg 84%
04:00 +10°C° 0 mm 1 mps 765 mmHg 85%
05:00 +10°C° 0 mm 1 mps 765 mmHg 85%
06:00 +10°C° 0 mm 1 mps 765 mmHg 85%
07:00 +11°C° 0 mm 1 mps 765 mmHg 82%
08:00 +11°C° 0 mm 1 mps 766 mmHg 78%
09:00 +12°C° 0 mm 1 mps 766 mmHg 75%
10:00 +14°C° 0 mm 1 mps 766 mmHg 67%
11:00 +15°C° 0 mm 1 mps 765 mmHg 58%
12:00 +18°C° 0 mm 1 mps 765 mmHg 50%
13:00 +18°C° 0 mm 1 mps 765 mmHg 52%
14:00 +17°C° 0 mm 2 mps 765 mmHg 54%
15:00 +17°C° 0 mm 2 mps 764 mmHg 56%
16:00 +15°C° 0 mm 2 mps 765 mmHg 65%
17:00 +14°C° 0 mm 2 mps 765 mmHg 74%
18:00 +12°C° 0 mm 1 mps 765 mmHg 83%
19:00 +12°C° 0 mm 1 mps 765 mmHg 84%
20:00 +12°C° 0 mm 1 mps 766 mmHg 85%
21:00 +11°C° 0 mm 1 mps 767 mmHg 86%
22:00 +12°C° 0 mm 1 mps 766 mmHg 86%
23:00 +12°C° 0 mm 1 mps 766 mmHg 86%

Day after tomorrow, 4 July, Saturday

Time Temperature Precipitation Wind Pressure Humidity
00:00 +12°C° 0 mm 1 mps 766 mmHg 86%
01:00 +12°C° 0 mm 1 mps 766 mmHg 83%
02:00 +13°C° 0 mm 1 mps 765 mmHg 80%
03:00 +14°C° 0 mm 1 mps 765 mmHg 77%
04:00 +14°C° 0 mm 1 mps 765 mmHg 78%
05:00 +14°C° 0 mm 1 mps 765 mmHg 79%
06:00 +14°C° 0 mm 2 mps 764 mmHg 79%
07:00 +15°C° 0 mm 2 mps 765 mmHg 78%
08:00 +15°C° 0 mm 2 mps 765 mmHg 77%
09:00 +16°C° 0 mm 2 mps 765 mmHg 75%
10:00 +18°C° 0 mm 2 mps 765 mmHg 70%
11:00 +19°C° 0 mm 3 mps 764 mmHg 65%
12:00 +21°C° 0 mm 4 mps 764 mmHg 60%
13:00 +21°C° 0 mm 4 mps 763 mmHg 60%
14:00 +21°C° 0 mm 4 mps 763 mmHg 60%
15:00 +21°C° 0 mm 4 mps 762 mmHg 60%
16:00 +20°C° 0 mm 4 mps 762 mmHg 69%
17:00 +19°C° 0 mm 4 mps 762 mmHg 77%
18:00 +17°C° 0 mm 4 mps 762 mmHg 86%
19:00 +17°C° 0 mm 3 mps 762 mmHg 88%
20:00 +17°C° 0 mm 3 mps 763 mmHg 90%
21:00 +16°C° 0 mm 2 mps 763 mmHg 92%
22:00 +16°C° 0 mm 2 mps 763 mmHg 92%
23:00 +17°C° 0 mm 2 mps 763 mmHg 92%

5 July, Sunday

Time Temperature Precipitation Wind Pressure Humidity
00:00 +17°C° 0 mm 2 mps 763 mmHg 92%
01:00 +17°C° 0 mm 2 mps 762 mmHg 91%
02:00 +17°C° 0 mm 2 mps 762 mmHg 90%
03:00 +17°C° 0 mm 3 mps 762 mmHg 88%
04:00 +17°C° 0 mm 3 mps 762 mmHg 88%
05:00 +18°C° 0 mm 3 mps 761 mmHg 87%
06:00 +18°C° 0 mm 3 mps 761 mmHg 86%
07:00 +18°C° 0 mm 3 mps 761 mmHg 84%
08:00 +19°C° 0 mm 3 mps 761 mmHg 82%
09:00 +19°C° 0 mm 4 mps 761 mmHg 80%
10:00 +21°C° 0 mm 4 mps 761 mmHg 74%
11:00 +22°C° 0 mm 4 mps 761 mmHg 68%
12:00 +25°C° 0 mm 4 mps 760 mmHg 62%
13:00 +25°C° 0 mm 3 mps 760 mmHg 63%
14:00 +25°C° 0 mm 3 mps 759 mmHg 64%
15:00 +25°C° 0 mm 3 mps 759 mmHg 65%
16:00 +24°C° 0 mm 2 mps 759 mmHg 68%
17:00 +24°C° 0 mm 2 mps 759 mmHg 71%
18:00 +23°C° 0 mm 1 mps 759 mmHg 73%
19:00 +21°C° 0.1 mm 2 mps 760 mmHg 78%
20:00 +20°C° 0.1 mm 3 mps 760 mmHg 83%
21:00 +20°C° 0.1 mm 4 mps 761 mmHg 88%
22:00 +19°C° 1 mm 3 mps 761 mmHg 90%
23:00 +19°C° 1 mm 2 mps 761 mmHg 93%

6 July, Monday

Time Temperature Precipitation Wind Pressure Humidity
00:00 +20°C° 1 mm 1 mps 762 mmHg 96%
01:00 +20°C° 0.2 mm 1 mps 761 mmHg 95%
02:00 +20°C° 0.2 mm 1 mps 761 mmHg 95%
03:00 +20°C° 0.2 mm 1 mps 761 mmHg 94%
04:00 +20°C° 0.5 mm 1 mps 761 mmHg 95%
05:00 +18°C° 0.5 mm 2 mps 761 mmHg 96%
06:00 +18°C° 0.5 mm 2 mps 762 mmHg 97%
07:00 +18°C° 0.9 mm 3 mps 762 mmHg 96%
08:00 +18°C° 0.9 mm 4 mps 762 mmHg 96%
09:00 +18°C° 0.9 mm 4 mps 763 mmHg 96%
10:00 +17°C° 2.7 mm 4 mps 763 mmHg 95%
11:00 +17°C° 2.7 mm 4 mps 763 mmHg 95%
12:00 +17°C° 2.7 mm 4 mps 763 mmHg 94%
13:00 +15°C° 3.4 mm 4 mps 763 mmHg 95%
14:00 +15°C° 3.4 mm 4 mps 763 mmHg 95%
15:00 +15°C° 3.4 mm 4 mps 762 mmHg 96%
16:00 +15°C° 2.3 mm 4 mps 763 mmHg 96%
17:00 +15°C° 2.3 mm 4 mps 763 mmHg 96%
18:00 +14°C° 2.3 mm 4 mps 763 mmHg 96%
19:00 +14°C° 1.7 mm 3 mps 763 mmHg 96%
20:00 +14°C° 1.7 mm 3 mps 763 mmHg 96%
21:00 +14°C° 1.7 mm 3 mps 763 mmHg 96%
22:00 +14°C° 2.4 mm 3 mps 763 mmHg 96%
23:00 +14°C° 2.4 mm 3 mps 763 mmHg 96%

7 July, Tuesday

Time Temperature Precipitation Wind Pressure Humidity
00:00 +14°C° 2.4 mm 3 mps 763 mmHg 97%
01:00 +15°C° 1.5 mm 2 mps 763 mmHg 97%
02:00 +15°C° 1.5 mm 2 mps 762 mmHg 97%
03:00 +16°C° 1.5 mm 2 mps 761 mmHg 97%
04:00 +16°C° 0.8 mm 2 mps 761 mmHg 97%
05:00 +16°C° 0.8 mm 2 mps 761 mmHg 97%
06:00 +16°C° 0.8 mm 2 mps 761 mmHg 97%
07:00 +17°C° 0.2 mm 2 mps 760 mmHg 97%
08:00 +17°C° 0.2 mm 2 mps 760 mmHg 96%
09:00 +18°C° 0.2 mm 2 mps 760 mmHg 96%
10:00 +19°C° 0 mm 1 mps 760 mmHg 94%
11:00 +20°C° 0 mm 1 mps 759 mmHg 93%
12:00 +21°C° 0 mm 1 mps 759 mmHg 91%
13:00 +21°C° 0 mm 1 mps 758 mmHg 88%
14:00 +21°C° 0 mm 2 mps 757 mmHg 85%
15:00 +23°C° 0 mm 2 mps 756 mmHg 83%
16:00 +21°C° 0 mm 2 mps 756 mmHg 87%
17:00 +21°C° 0 mm 1 mps 756 mmHg 91%
18:00 +21°C° 0 mm 1 mps 757 mmHg 94%
19:00 +21°C° 0 mm 1 mps 757 mmHg 95%
20:00 +21°C° 0 mm 1 mps 757 mmHg 96%
21:00 +21°C° 0 mm 1 mps 757 mmHg 96%
22:00 +21°C° 0 mm 1 mps 756 mmHg 96%
23:00 +19°C° 0 mm 2 mps 756 mmHg 96%
Show more